FW5442 Weather Reports


time (UTC)temp
F
wind
direction
speed
knots
gust
knots
rain 1hr
in
rain 24hr
in
rain mn
in
humidity
%
barometer
mb
20260902224601 93 239 5.2 9.6 0.00 0.01 0.01 50 1013.6
20260902224052 93 247 4.3 7.0 0.00 0.01 0.01 50 1013.6
20260902223552 93 269 3.5 7.8 0.00 0.01 0.01 51 1013.5
20260902223118 93 271 4.3 12.2 0.00 0.01 0.01 51 1013.6
20260902222557 93 299 4.3 12.2 0.00 0.01 0.01 50 1013.5
20260902222055 94 264 3.5 10.4 0.00 0.01 0.01 49 1013.5
20260902221559 95 295 4.3 7.8 0.00 0.01 0.01 47 1013.5
20260902221059 96 331 3.5 7.8 0.00 0.01 0.01 46 1013.5
20260902220557 96 299 3.5 6.1 0.00 0.01 0.01 45 1013.6
20260902220111 97 267 3.5 6.1 0.00 0.01 0.01 42 1013.5
20260902215552 97 285 3.5 7.8 0.00 0.01 0.01 41 1013.6
20260902215056 98 225 3.5 9.6 0.00 0.01 0.01 41 1013.6
20260902214601 98 229 5.2 9.6 0.00 0.01 0.01 40 1013.6
20260902214056 99 252 2.6 5.2 0.00 0.01 0.01 39 1013.5
20260902213554 99 0 1.7 6.1 0.00 0.01 0.01 41 1013.7
20260902213111 98 109 0.9 6.1 0.00 0.01 0.01 42 1013.7
20260902212556 98 110 3.5 7.0 0.00 0.01 0.01 41 1013.9
20260902212056 99 150 3.5 7.8 0.00 0.01 0.01 40 1013.8
20260902211608 99 128 2.6 7.8 0.00 0.01 0.01 39 1013.8
20260902211055 100 119 4.3 7.8 0.00 0.01 0.01 39 1013.8
20260902210555 100 78 1.7 4.3 0.00 0.01 0.01 40 1013.8
20260902210103 101 124 1.7 6.1 0.00 0.01 0.01 39 1013.8
20260902205557 99 234 1.7 8.7 0.00 0.01 0.01 40 1013.9
20260902205059 99 102 3.5 8.7 0.00 0.01 0.01 41 1014.0
20260902204605 98 134 5.2 8.7 0.00 0.01 0.01 41 1014.1
20260902204057 99 123 3.5 9.6 0.00 0.01 0.01 42 1014.0
20260902203555 98 155 3.5 9.6 0.00 0.01 0.01 41 1014.0
20260902203058 99 192 6.1 9.6 0.00 0.01 0.01 41 1014.1
20260902202556 100 214 5.2 8.7 0.00 0.01 0.01 41 1014.2
20260902202055 100 162 1.7 7.8 0.00 0.01 0.01 39 1014.3
20260902201603 99 246 5.2 9.6 0.00 0.01 0.01 41 1014.3
20260902201055 99 155 5.2 9.6 0.00 0.01 0.01 42 1014.2
20260902200555 98 164 2.6 8.7 0.00 0.01 0.01 41 1014.4
20260902200105 98 20 2.6 9.6 0.00 0.01 0.01 42 1014.4
20260902195556 98 85 2.6 9.6 0.00 0.01 0.01 41 1014.6
20260902195055 98 116 3.5 10.4 0.00 0.01 0.01 43 1014.4
20260902194605 97 219 3.5 10.4 0.00 0.01 0.01 43 1014.7
20260902194053 96 129 7.0 10.4 0.00 0.01 0.01 45 1014.8
20260902193556 95 165 4.3 8.7 0.00 0.01 0.01 48 1014.9
20260902193128 96 132 3.5 7.0 0.00 0.01 0.01 44 1014.9
20260902192552 96 122 2.6 6.1 0.00 0.01 0.01 45 1014.9
20260902192101 96 138 3.5 7.8 0.00 0.01 0.01 45 1015.1
20260902191605 96 133 4.3 7.8 0.00 0.01 0.01 47 1015.2
20260902191057 96 243 2.6 6.1 0.00 0.01 0.01 45 1015.2
20260902190555 96 170 2.6 7.8 0.00 0.01 0.01 46 1015.3
20260902190108 97 90 3.5 8.7 0.00 0.01 0.01 46 1015.4
20260902185556 97 92 3.5 8.7 0.00 0.01 0.01 46 1015.4
20260902185053 97 77 5.2 8.7 0.00 0.01 0.01 45 1015.6
20260902184658 97 118 4.3 8.7 0.00 0.01 0.01 45 1015.7
20260902184055 96 91 5.2 7.8 0.00 0.01 0.01 46 1015.8
20260902183557 96 108 4.3 7.8 0.00 0.01 0.01 47 1015.8
20260902183118 97 112 1.7 11.3 0.00 0.01 0.01 46 1015.9
20260902182556 97 216 4.3 11.3 0.00 0.01 0.01 45 1016.0
20260902182058 97 160 5.2 11.3 0.00 0.01 0.01 45 1016.1
20260902181602 96 140 4.3 8.7 0.00 0.01 0.01 46 1016.0
20260902181055 95 95 3.5 7.8 0.00 0.01 0.01 46 1016.1
20260902180556 95 108 5.2 8.7 0.00 0.01 0.01 46 1016.3
20260902180105 96 120 4.3 8.7 0.00 0.01 0.01 46 1016.4
20260902175555 95 0 0.0 7.8 0.00 0.01 0.01 49 1016.5
20260902175058 94 85 3.5 7.8 0.00 0.01 0.01 50 1016.5
20260902174603 95 72 3.5 8.7 0.00 0.01 0.01 48 1016.5
20260902174056 94 98 2.6 8.7 0.00 0.01 0.01 49 1016.5
20260902173556 95 79 2.6 9.6 0.00 0.01 0.01 50 1016.7
20260902173102 95 86 5.2 9.6 0.00 0.01 0.01 48 1016.7
20260902172555 96 97 2.6 9.6 0.00 0.01 0.01 47 1016.6
20260902172057 95 136 6.1 9.6 0.00 0.01 0.01 47 1016.8
20260902171606 95 119 4.3 7.0 0.00 0.01 0.01 47 1017.0
20260902171057 94 91 1.7 7.8 0.00 0.01 0.01 50 1017.1
20260902170555 94 0 3.5 7.8 0.00 0.01 0.01 49 1017.1
20260902165556 95 149 0.9 3.5 0.00 0.01 0.01 48 1017.2
20260902165055 94 0 0.0 3.5 0.00 0.01 0.01 49 1017.2
20260902164607 94 8 1.7 7.0 0.00 0.01 0.01 49 1017.2
20260902164056 94 323 2.6 7.0 0.00 0.01 0.01 50 1017.5
20260902163556 93 82 3.5 7.8 0.00 0.01 0.01 50 1017.4
20260902163103 93 222 1.7 7.8 0.00 0.01 0.01 50 1017.4
20260902162555 93 287 3.5 7.0 0.00 0.01 0.01 50 1017.6
20260902162056 94 0 0.0 7.0 0.00 0.01 0.01 50 1017.7
20260902161606 94 121 4.3 7.0 0.00 0.01 0.01 51 1017.6
20260902161055 93 81 0.9 5.2 0.00 0.01 0.01 52 1017.8
20260902160555 93 70 1.7 5.2 0.00 0.01 0.01 51 1017.7
20260902155556 93 150 2.6 5.2 0.00 0.01 0.01 52 1017.8
20260902155055 92 0 1.7 3.5 0.00 0.01 0.01 54 1017.9
20260902154603 92 93 0.9 7.0 0.00 0.01 0.01 54 1017.9
20260902154055 92 78 2.6 7.0 0.00 0.01 0.01 55 1017.9
20260902153555 91 100 0.9 7.0 0.00 0.01 0.01 55 1017.8
20260902153107 90 0 2.6 7.0 0.00 0.01 0.01 55 1017.9
20260902152556 90 319 3.5 5.2 0.00 0.01 0.01 55 1017.7
20260902152054 90 351 2.6 4.3 0.00 0.01 0.01 55 1017.7
20260902151605 90 303 0.9 4.3 0.00 0.01 0.01 55 1017.8
20260902151056 90 209 0.0 8.7 0.00 0.01 0.01 56 1017.8
20260902150556 89 281 1.7 8.7 0.00 0.01 0.01 57 1017.8
20260902145556 89 235 2.6 6.1 0.00 0.01 0.01 57 1017.8
20260902145055 88 0 1.7 6.1 0.00 0.01 0.01 58 1017.8
20260902144607 89 309 3.5 5.2 0.00 0.01 0.01 59 1017.7
20260902144055 88 0 1.7 7.8 0.00 0.01 0.01 60 1017.8
20260902143555 87 212 3.5 7.8 0.00 0.01 0.01 61 1017.9
20260902143104 87 331 2.6 6.1 0.00 0.01 0.01 61 1017.8
20260902142555 87 304 2.6 7.8 0.00 0.01 0.01 61 1017.7
20260902142052 87 309 1.7 7.8 0.00 0.01 0.01 61 1017.7
20260902141556 87 266 3.5 6.1 0.01 0.01 0.01 62 1017.8
20260902141057 86 271 3.5 6.1 0.01 0.01 0.01 62 1017.8
20260902140555 86 286 5.2 6.1 0.01 0.01 0.01 62 1017.9
20260902140104 86 308 1.7 7.0 0.01 0.01 0.01 64 1017.8
20260902135554 85 275 3.5 7.0 0.01 0.01 0.01 64 1017.8
20260902135056 85 304 4.3 6.1 0.01 0.01 0.01 64 1017.9
20260902134611 85 236 2.6 5.2 0.01 0.01 0.01 64 1017.9
20260902134056 85 264 2.6 4.3 0.01 0.01 0.01 65 1017.8
20260902133555 85 236 0.9 8.7 0.01 0.01 0.01 67 1017.8
20260902133101 84 0 0.0 8.7 0.01 0.01 0.01 68 1017.8
20260902132555 84 0 0.9 8.7 0.01 0.01 0.01 69 1017.9
20260902132055 83 0 0.0 5.2 0.01 0.01 0.01 73 1017.9
20260902131603 81 0 0.0 5.2 0.00 0.00 0.00 75 1017.9
20260902131056 81 191 0.0 7.0 0.00 0.00 0.00 44 1017.9
20260902130556 82 0 0.0 7.0 0.00 0.00 0.00 43 1017.8
20260902125555 0 0.0 0.0 0.00 0.00 0.00 1017.9
20260902125055 0 0.0 0.0 0.00 0.00 0.00 1017.8
20260902124616 0 0.0 0.0 0.00 0.00 0.00 1017.6
20260902124055 0 0.0 0.0 0.00 0.00 0.00 1017.6
20260902123556 0 0.0 0.0 0.00 0.00 0.00 1017.6
20260902123122 0 0.0 0.0 0.00 0.00 0.00 1017.6
20260902122557 0 0.0 0.0 0.00 0.00 0.00 1017.4
20260902122052 0 0.0 0.0 0.00 0.00 0.00 1017.4
20260902121608 0 0.0 0.0 0.00 0.00 0.00 1017.4
20260902121055 0 0.0 0.0 0.00 0.00 0.00 1017.2
20260902120555 0 0.0 0.0 0.00 0.00 0.00 1017.2
20260902120101 0 0.0 0.0 0.00 0.00 0.00 1017.2
20260902115556 0 0.0 0.0 0.00 0.00 0.00 1017.1
20260902115056 0 0.0 0.0 0.00 0.00 0.00 1017.0
20260902114606 0 0.0 0.0 0.00 0.00 0.00 1016.8
20260902114055 0 0.0 0.0 0.00 0.00 0.00 1016.9
20260902113555 0 0.0 0.0 0.00 0.00 0.00 1016.8
20260902113111 0 0.0 0.0 0.00 0.00 0.00 1017.0
20260902112552 0 0.0 0.0 0.00 0.00 0.00 1016.9
20260902112055 0 0.0 0.0 0.00 0.00 0.00 1017.0
20260902111559 0 0.0 0.0 0.00 0.00 0.00 1016.8
20260902111055 0 0.0 0.0 0.00 0.00 0.00 1016.8
20260902110556 0 0.0 0.0 0.00 0.00 0.00 1016.7
20260902110104 0 0.0 0.0 0.00 0.00 0.00 1016.6
20260902105555 0 0.0 0.0 0.00 0.00 0.00 1016.6
20260902105058 0 0.0 0.0 0.00 0.00 0.00 1016.4
20260902104600 0 0.0 0.0 0.00 0.00 0.00 1016.4
20260902104055 0 0.0 0.0 0.00 0.00 0.00 1016.5
20260902103553 0 0.0 0.0 0.00 0.00 0.00 1016.4
20260902103106 0 0.0 0.0 0.00 0.00 0.00 1016.3
20260902102555 0 0.0 0.0 0.00 0.00 0.00 1016.4
20260902102053 0 0.0 0.0 0.00 0.00 0.00 1016.5
20260902101556 0 0.0 0.0 0.00 0.00 0.00 1016.5
20260902101053 0 0.0 0.0 0.00 0.00 0.00 1016.5
20260902100553 0 0.0 0.0 0.00 0.00 0.00 1016.5
20260902100122 0 0.0 0.0 0.00 0.00 0.00 1016.4
20260902095554 0 0.0 0.0 0.00 0.00 0.00 1016.3
20260902095053 0 0.0 0.0 0.00 0.00 0.00 1016.4
20260902094603 0 0.0 0.0 0.00 0.00 0.00 1016.4
20260902094054 0 0.0 0.0 0.00 0.00 0.00 1016.5
20260902093553 0 0.0 0.0 0.00 0.00 0.00 1016.5
20260902093057 0 0.0 0.0 0.00 0.00 0.00 1016.4
20260902092555 0 0.0 0.0 0.00 0.00 0.00 1016.2
20260902092056 0 0.0 0.0 0.00 0.00 0.00 1016.2
20260902091610 0 0.0 0.0 0.00 0.00 0.00 1016.1
20260902091054 0 0.0 0.0 0.00 0.00 0.00 1015.9
20260902090554 0 0.0 0.0 0.00 0.00 0.00 1016.0
20260902090104 0 0.0 0.0 0.00 0.00 0.00 1016.0
20260902085554 0 0.0 0.0 0.00 0.00 0.00 1016.1
20260902085053 0 0.0 0.0 0.00 0.00 0.00 1016.0
20260902084603 0 0.0 0.0 0.00 0.00 0.00 1015.9
20260902084053 0 0.0 0.0 0.00 0.00 0.00 1015.9
20260902083553 0 0.0 0.0 0.00 0.00 0.00 1015.9
20260902083058 0 0.0 0.0 0.00 0.00 0.00 1015.9
20260902082556 0 0.0 0.0 0.00 0.00 0.00 1015.8
20260902082054 0 0.0 0.0 0.00 0.00 0.00 1015.7
20260902081601 0 0.0 0.0 0.00 0.00 0.00 1015.6
20260902081054 0 0.0 0.0 0.00 0.00 0.00 1015.7
20260902080555 0 0.0 0.0 0.00 0.00 0.00 1015.8
20260902080115 0 0.0 0.0 0.00 0.00 0.00 1015.8
20260902075553 0 0.0 0.0 0.00 0.00 0.00 1015.6
20260902075053 0 0.0 0.0 0.00 0.00 0.00 1015.6
20260902074616 0 0.0 0.0 0.00 0.00 0.00 1015.5
20260902074053 0 0.0 0.0 0.00 0.00 0.00 1015.5
20260902073553 0 0.0 0.0 0.00 0.00 0.00 1015.5
20260902073108 0 0.0 0.0 0.00 0.00 0.00 1015.5
20260902072556 0 0.0 0.0 0.00 0.00 0.00 1015.6
20260902072053 0 0.0 0.0 0.00 0.00 0.00 1015.8
20260902071629 0 0.0 0.0 0.00 0.00 0.00 1015.7
20260902071055 0 0.0 0.0 0.00 0.00 0.00 1015.5
20260902070553 0 0.0 0.0 0.00 0.00 0.00 1015.6
20260902070056 0 0.0 0.0 0.00 0.00 0.00 1015.5
20260902065553 0 0.0 0.0 0.00 0.00 0.00 1015.6
20260902065054 0 0.0 0.0 0.00 0.00 0.00 1015.6
20260902064606 0 0.0 0.0 0.00 0.00 0.00 1015.7
20260902064053 0 0.0 0.0 0.00 0.00 0.00 1015.4
20260902063553 0 0.0 0.0 0.00 0.00 0.00 1015.5
20260902063101 0 0.0 0.0 0.00 0.00 0.00 1015.5
20260902062553 0 0.0 0.0 0.00 0.00 0.00 1015.4
20260902062056 0 0.0 0.0 0.00 0.00 0.00 1015.6
20260902061611 0 0.0 0.0 0.00 0.00 0.00 1015.7
20260902061056 0 0.0 0.0 0.00 0.00 0.00 1015.5
20260902060554 0 0.0 0.0 0.00 0.00 0.00 1015.5
20260902060104 0 0.0 0.0 0.00 0.00 0.00 1015.4
20260902055556 0 0.0 0.0 0.00 0.00 0.00 1015.5
20260902055054 0 0.0 0.0 0.00 0.00 0.00 1015.6
20260902054558 0 0.0 0.0 0.00 0.00 0.00 1015.6
20260902054052 0 0.0 0.0 0.00 0.00 0.00 1015.6
20260902053554 0 0.0 0.0 0.00 0.00 0.00 1015.6
20260902053056 0 0.0 0.0 0.00 0.00 0.00 1015.6
20260902052554 0 0.0 0.0 0.00 0.00 0.00 1015.5
20260902052054 0 0.0 0.0 0.00 0.00 0.00 1015.7
20260902051559 0 0.0 0.0 0.00 0.00 0.00 1015.8
20260902051052 0 0.0 0.0 0.00 0.00 0.00 1015.6
20260902050554 0 0.0 0.0 0.00 0.00 0.00 1015.7
20260902050112 0 0.0 0.0 0.00 0.00 0.00 1015.5
20260902045554 0 0.0 0.0 0.00 0.00 0.00 1015.5
20260902045053 0 0.0 0.0 0.00 0.00 0.00 1015.6
20260902044604 0 0.0 0.0 0.00 0.00 0.00 1015.6
20260902044054 0 0.0 0.0 0.00 0.00 0.00 1015.6
20260902043555 0 0.0 0.0 0.00 0.00 0.00 1015.6
20260902043111 0 0.0 0.0 0.00 0.00 0.00 1015.6
20260902042553 0 0.0 0.0 0.00 0.00 0.00 1015.5
20260902042053 0 0.0 0.0 0.00 0.00 0.00 1015.6
20260902041604 0 0.0 0.0 0.00 0.00 0.00 1015.7
20260902041056 0 0.0 0.0 0.00 0.00 0.00 1015.6
20260902040554 0 0.0 0.0 0.00 0.00 0.00 1015.5
20260902040103 0 0.0 0.0 0.00 0.00 0.00 1015.5
20260902035556 0 0.0 0.0 0.00 0.00 0.00 1015.6
20260902035053 0 0.0 0.0 0.00 0.00 0.00 1015.6
20260902034601 0 0.0 0.0 0.00 0.00 0.00 1015.6
20260902034052 0 0.0 0.0 0.00 0.00 0.00 1015.6
20260902033552 0 0.0 0.0 0.00 0.00 0.00 1015.4
20260902033104 0 0.0 0.0 0.00 0.00 0.00 1015.6
20260902032556 0 0.0 0.0 0.00 0.00 0.00 1015.6
20260902032052 0 0.0 0.0 0.00 0.00 0.00 1015.6
20260902031604 0 0.0 0.0 0.00 0.00 0.00 1015.6
20260902031055 0 0.0 0.0 0.00 0.00 0.00 1015.5
20260902030555 0 0.0 0.0 0.00 0.00 0.00 1015.5
20260902030058 0 0.0 0.0 0.00 0.00 0.00 1015.5
20260902025553 0 0.0 0.0 0.00 0.00 0.00 1015.5
20260902025053 0 0.0 0.0 0.00 0.00 0.00 1015.6
20260902024602 0 0.0 0.0 0.00 0.00 0.00 1015.4
20260902024055 0 0.0 0.0 0.00 0.00 0.00 1015.1
20260902023554 0 0.0 0.0 0.00 0.00 0.00 1015.1
20260902023102 0 0.0 0.0 0.00 0.00 0.00 1015.2
20260902022554 0 0.0 0.0 0.00 0.00 0.00 1015.1
20260902022056 0 0.0 0.0 0.00 0.00 0.00 1015.0
20260902021605 0 0.0 0.0 0.00 0.00 0.00 1014.9
20260902021052 0 0.0 0.0 0.00 0.00 0.00 1014.7
20260902020553 0 0.0 0.0 0.00 0.00 0.00 1014.9
20260902020059 0 0.0 0.0 0.00 0.00 0.00 1014.8
20260902015557 0 0.0 0.0 0.00 0.00 0.00 1014.6
20260902015053 0 0.0 0.0 0.00 0.00 0.00 1014.5
20260902014557 0 0.0 0.0 0.00 0.00 0.00 1014.4
20260902014053 0 0.0 0.0 0.00 0.00 0.00 1014.5
20260902013556 0 0.0 0.0 0.00 0.00 0.00 1014.4
20260902013058 0 0.0 0.0 0.00 0.00 0.00 1014.3
20260902012552 0 0.0 0.0 0.00 0.00 0.00 1014.3
20260902012052 0 0.0 0.0 0.00 0.00 0.00 1014.2
20260902011601 0 0.0 0.0 0.00 0.00 0.00 1014.3
20260902011053 0 0.0 0.0 0.00 0.00 0.00 1014.3
20260902010556 0 0.0 0.0 0.00 0.00 0.00 1014.2
20260902010122 0 0.0 0.0 0.00 0.00 0.00 1014.2
20260902005556 0 0.0 0.0 0.00 0.00 0.00 1014.2
20260902005055 0 0.0 0.0 0.00 0.00 0.00 1014.2
20260902004605 0 0.0 0.0 0.00 0.00 0.00 1014.1
20260902004053 0 0.0 0.0 0.00 0.00 0.00 1014.1
20260902003553 0 0.0 0.0 0.00 0.00 0.00 1014.1
20260902003102 0 0.0 0.0 0.00 0.00 0.00 1014.1
20260902002553 0 0.0 0.0 0.00 0.00 0.00 1014.1
20260902002053 0 0.0 0.0 0.00 0.00 0.00 1014.1
20260902001605 0 0.0 0.0 0.00 0.00 0.00 1014.1
20260902001053 0 0.0 0.0 0.00 0.00 0.00 1014.2
20260902000554 0 0.0 0.0 0.00 0.00 0.00 1014.2
20260902000105 0 0.0 0.0 0.00 0.00 0.00 1014.1
20260901235554 0 0.0 0.0 0.00 0.00 0.00 1014.2
20260901235053 0 0.0 0.0 0.00 0.00 0.00 1014.2
20260901234600 0 0.0 0.0 0.00 0.00 0.00 1014.3
20260901234054 0 0.0 0.0 0.00 0.00 0.00 1014.2
20260901233554 0 0.0 0.0 0.00 0.00 0.00 1014.3
20260901233102 0 0.0 0.0 0.00 0.00 0.00 1014.2
20260901232554 0 0.0 0.0 0.00 0.00 0.00 1014.3
20260901232054 0 0.0 0.0 0.00 0.00 0.00 1014.1
20260901231558 0 0.0 0.0 0.00 0.00 0.00 1014.2
20260901231053 0 0.0 0.0 0.00 0.00 0.00 1014.3
20260901230553 0 0.0 0.0 0.00 0.00 0.00 1014.3
20260901230105 0 0.0 0.0 0.00 0.00 0.00 1014.3
20260901225554 0 0.0 0.0 0.00 0.00 0.00 1014.3
20260901225052 0 0.0 0.0 0.00 0.00 0.00 1014.4